This is the latest recevied weather packets stored in our database for station/object S50ME-11. If no packets are shown the sender has not sent any weather packets the latest 10 day(s).
| Time | Temp. | Humidity | Pressure | Rain* | Wind** | Luminosity | Snow |
|---|---|---|---|---|---|---|---|
| 1777879846 | 25° C | 39% | 1019 hPa | - | - | - | - |
| 1777878946 | 23.89° C | 40% | 1019 hPa | - | - | - | - |
| 1777878049 | 22.78° C | 40% | 1018.9 hPa | - | - | - | - |
| 1777878045 | 22.78° C | 40% | 1018.9 hPa | - | - | - | - |
| 1777877149 | 21.11° C | 41% | 1018.3 hPa | - | - | - | - |
| 1777877145 | 21.11° C | 41% | 1018.3 hPa | - | - | - | - |
| 1777876245 | 18.89° C | 41% | 1018.3 hPa | - | - | - | - |
| 1777875349 | 16.67° C | 42% | 1018.5 hPa | - | - | - | - |
| 1777875343 | 16.67° C | 42% | 1018.5 hPa | - | - | - | - |
| 1777874455 | 16.11° C | 43% | 1019.2 hPa | - | - | - | - |
| 1777873556 | 15° C | 43% | 1017.7 hPa | - | - | - | - |
| 1777873552 | 15° C | 43% | 1017.7 hPa | - | - | - | - |
| 1777872707 | 13.89° C | 43% | 1017.6 hPa | - | - | - | - |
| 1777872655 | 13.89° C | 43% | 1017.6 hPa | - | - | - | - |
| 1777871754 | 13.33° C | 43% | 1019.2 hPa | - | - | - | - |
| 1777871751 | 13.33° C | 43% | 1019.2 hPa | - | - | - | - |
| 1777870894 | 12.78° C | 44% | 1018.9 hPa | - | - | - | - |
| 1777870854 | 12.78° C | 44% | 1018.9 hPa | - | - | - | - |
| 1777870852 | 12.78° C | 44% | 1018.9 hPa | - | - | - | - |
| 1777869956 | 11.67° C | 44% | 1018.8 hPa | - | - | - | - |
| 1777869951 | 11.67° C | 44% | 1018.8 hPa | - | - | - | - |
| 1777869050 | 11.11° C | 44% | 1018.5 hPa | - | - | - | - |
| 1777868153 | 11.11° C | 44% | 1017.9 hPa | - | - | - | - |
| 1777867321 | 10.56° C | 44% | 1017.9 hPa | - | - | - | - |
| 1777867253 | 10.56° C | 44% | 1017.9 hPa | - | - | - | - |
* Rain since midnight (hover to see other rain measurements)
** Current wind speed in m/s (hover to see current wind gust speed)